Find Starlink 11711

NORAD ID: 64378 Int'l Des: 2025-127 Owner: SPXS Country: US Constellation: starlink operational
又名: STARLINK-11711 [DTC] celestrak
LEOCIRCULAR

当前视图

正在加载3D地球...

About Starlink 11711

Starlink 11711 (NORAD 64378) is a starlink constellation satellite (v2 mini) launched Jun 13, 2025 by SPXS of US. It operates in LEO, CIRCULAR orbit with a mass of 960.00 kg.

即将过境

Passes for default location (London). Set your location on the main map for personalized predictions.

高度历史

Loading altitude history...

两行轨道根数

1 64378U 25127J 26237.17632098 .00133945 00000-0 10305-2 0 9997
2 64378 43.0012 148.7122 0002029 240.9930 119.0735 15.70843107 70116
Epoch: Aug 25, 2026 • Age: 8 hours

当前状态

高度 357.3 km
远地点 / 近地点 N/A
速度 7.70 km/s
星下点 24.85°N, 22.25°E
发射日期 Jun 13, 2025
运行时间 1.1 years
类型 internet

技术详情

分类 Payload
质量 960.00 kg
干质量 910.00 kg
总质量 960.00 kg
长度 0.30 m
直径 4.10 m
跨度 29.00 m
形状 Box + pan
制造商 SPXS
平台类型 Starlink V2MD
阶段状态 In Orbit
所有者/国家 SPXS/US

Most Searched